Regional Weather Roundup
Issued by NWS

Home | Current Version | Previous Version | Text Only | Print | Product List | Glossary On
Versions: 1 2 3 4 5 6 7 8 9 10 11 12 13 14 15 16 17 18 19 20 21 22 23 24 25 26 27 28 29 30 31 32 33 34 35 36 37 38 39 40 41 42 43 44 45 46 47 48 49 50
062
ASUS44 KOUN 091810
RWROK

WEATHER ROUNDUP FOR OKLAHOMA
NATIONAL WEATHER SERVICE NORMAN OK
1200 PM CST TUE FEB 09 2016

NOTE: "FAIR" INDICATES FEW OR NO CLOUDS BELOW 12,000 FEET WITH NO
      SIGNIFICANT WEATHER AND/OR OBSTRUCTIONS TO VISIBILITY.

OKZ001>007-009>012-014-015-017-091900-
NORTHWEST OKLAHOMA AND THE PANHANDLE

CITY           SKY/WX    TMP DP  RH WIND       PRES   REMARKS
GAGE           SUNNY     52  26  36 N14G23    30.30R
6HR MIN TEMP:  23; 6HR MAX TEMP:  53;

GUYMON         SUNNY     62  23  22 N24G37    30.28F
ENID/WOODRING  PTSUNNY   45  23  42 N20G28    30.30S
$$

OKZ016-021>023-033>039-044-045-091900-
SOUTHWEST OKLAHOMA

CITY           SKY/WX    TMP DP  RH WIND       PRES   REMARKS
LAWTON/REGL    SUNNY     53  21  28 N14       30.31S
6HR MIN TEMP:  28; 6HR MAX TEMP:  54;

LAWTON/FT SILL SUNNY     53  22  29 N16       30.29S
FREDERICK      SUNNY     55  31  39 NE8       30.28S
CLINTON        SUNNY     52  27  38 N12       30.32R
HOBART         SUNNY     54  27  35 N15       30.31S
ALTUS AFB      SUNNY     57  28  33 N12       30.29F
$$

OKZ018>020-024>031-091900-
CENTRAL OKLAHOMA

CITY           SKY/WX    TMP DP  RH WIND       PRES   REMARKS
OKLAHOMA CITY  MOSUNNY   49  19  30 N18       30.28F
OKC/WILEY POST SUNNY     50  20  30 N16G26    30.29F
OKC/TINKER AFB SUNNY     47  17  29 N20G29    30.26F
STILLWATER     MOSUNNY   46  17  31 N18G28    30.29S
GUTHRIE        PTSUNNY   46  18  32 N13G20    30.30S
$$

OKZ008-013-054>072-091900-
NORTHEAST OKLAHOMA

CITY           SKY/WX    TMP DP  RH WIND       PRES   REMARKS
TULSA          MOSUNNY   44  18  35 N23G31    30.24F
6HR MIN TEMP:  30; 6HR MAX TEMP:  45;

TULSA/JONES    SUNNY     45  17  32 NW14G25   30.26F
PONCA CITY     CLOUDY    41  17  38 NW21G29   30.29S
BARTLESVILLE   SUNNY     43  13  29 NW8G21    30.28S
MUSKOGEE       SUNNY     45  17  32 NW18      30.24F
$$

OKZ032-040>043-046>053-073>077-091900-
SOUTH CENTRAL/SOUTHEAST OKLAHOMA

CITY           SKY/WX    TMP DP  RH WIND       PRES   REMARKS
ARDMORE/DWNTWN SUNNY     54  16  22 N13G20    30.28F
MCALESTER      LGT RAIN  45  15  30 NW18G28   30.25F
$$





USA.gov is the U.S. government's official web portal to all federal, state and local government web resources and services.